Weather History for Honolulu, HI

Change the Weather History Date:

Thursday, February 21, 2013

  Actual Average Record
Temperature  
Mean Temperature 74 °F 73 °F  
Max Temperature 79 °F 80 °F 87 °F (1977)
Min Temperature 69 °F 66 °F 55 °F (1962)
Degree Days  
Heating Degree Days 0 0  
Month to date heating degree days 0 0  
Since 1 July heating degree days 0 0  
Cooling Degree Days 9 8  
Month to date cooling degree days 208 168  
Year to date cooling degree days 427 422  
Growing Degree Days 24 (Base 50)    
Moisture  
Dew Point 65 °F    
Average Humidity 78    
Maximum Humidity 93    
Minimum Humidity 62    
Precipitation  
Precipitation 0.46 in 0.08 in 1.02 in (1988)
Month to date precipitation 0.47 1.45  
Year to date precipitation 2.89 3.76  
Snow  
Snow 0.00 in - - ()
Month to date snowfall 0.0  
Since 1 July snowfall 0.0  
Snow Depth 0.00 in    
Sea Level Pressure  
Sea Level Pressure 30.12 in    
Wind  
Wind Speed 13 mph (NE)    
Max Wind Speed 22 mph    
Max Gust Speed 31 mph    
Visibility 9 miles    
Events Rain    
T = Trace of Precipitation, MM = Missing Value Source: NWS Daily Summary

Daily Weather History Graph

Daily Weather History Graph

Search for Another Location

Airport:

Trip Planner

Search our weather history database for the weather conditions in past years. The results will help you decide how hot, cold, wet, or windy it might be!

Date:

Astronomy

Feb. 21, 2013 Rise Set
Actual Time 6:57 AM HST 6:32 PM HST
Civil Twilight 6:35 AM HST 6:55 PM HST
Nautical Twilight 6:09 AM HST 7:21 PM HST
Astronomical Twilight 5:43 AM HST 7:47 PM HST
Moon 3:15 PM HST (2/21) 3:51 AM HST (2/21)
Length of Visible Light 12h 19m
Length of Day
11h 34m
Waxing Gibbous, 85% of the Moon is Illuminated
Feb 21
Waxing Gibbous
Feb 25
Full
Mar 4
Last Quarter
Mar 11
New
Mar 19
First Quarter

Hourly Weather History & Observations

Time (HST) Temp. Dew Point Humidity Pressure Visibility Wind Dir Wind Speed Gust Speed Precip Events Conditions
12:53 AM 72.0 °F 60.1 °F 66% 30.13 in 10.0 mi North - - N/A   Partly Cloudy
1:53 AM 71.1 °F 59.0 °F 66% 30.12 in 10.0 mi North - - N/A   Partly Cloudy
2:53 AM 71.1 °F 61.0 °F 70% 30.12 in 10.0 mi ENE 9.2 mph - N/A   Scattered Clouds
3:53 AM 71.1 °F 62.1 °F 73% 30.11 in 10.0 mi ENE 13.8 mph - N/A   Scattered Clouds
4:53 AM 71.1 °F 62.1 °F 73% 30.10 in 10.0 mi ENE 10.4 mph - 0.00 in Rain Light Rain
5:53 AM 71.1 °F 62.1 °F 73% 30.11 in 10.0 mi NNE 5.8 mph - 0.00 in   Scattered Clouds
6:53 AM 69.1 °F 64.0 °F 84% 30.13 in 10.0 mi ENE 3.5 mph - 0.00 in   Scattered Clouds
7:53 AM 72.0 °F 63.0 °F 73% 30.14 in 10.0 mi ENE 11.5 mph - 0.00 in   Scattered Clouds
8:53 AM 73.0 °F 64.9 °F 76% 30.14 in 10.0 mi East 12.7 mph - 0.00 in Rain Light Rain
9:53 AM 75.0 °F 64.0 °F 69% 30.15 in 10.0 mi NE 16.1 mph 23.0 mph 0.00 in   Scattered Clouds
10:53 AM 75.0 °F 64.9 °F 71% 30.15 in 10.0 mi ENE 16.1 mph 23.0 mph N/A   Scattered Clouds
11:34 AM 77.0 °F 64.4 °F 65% 30.14 in 1.5 mi ENE 16.1 mph 24.2 mph 0.00 in   Haze
11:36 AM 77.0 °F 64.4 °F 65% 30.14 in 10.0 mi ENE 17.3 mph 24.2 mph 0.00 in   Partly Cloudy
11:53 AM 77.0 °F 66.0 °F 69% 30.13 in 10.0 mi ENE 13.8 mph 24.2 mph 0.00 in Rain Light Rain
12:53 PM 79.0 °F 64.0 °F 60% 30.11 in 10.0 mi ENE 13.8 mph 23.0 mph 0.00 in   Scattered Clouds
1:26 PM 75.2 °F 68.0 °F 78% 30.12 in 5.0 mi ENE 19.6 mph 26.5 mph 0.01 in Rain Rain
1:34 PM 71.6 °F 68.0 °F 88% 30.11 in 3.0 mi NE 11.5 mph 26.5 mph 0.20 in Rain Heavy Rain
1:53 PM 73.0 °F 70.0 °F 90% 30.10 in 5.0 mi NE 11.5 mph 21.9 mph 0.26 in Rain Light Rain
2:53 PM 73.9 °F 69.1 °F 85% 30.09 in 10.0 mi NE 15.0 mph 23.0 mph 0.04 in   Overcast
3:53 PM 73.9 °F 69.1 °F 85% 30.09 in 10.0 mi NE 15.0 mph 24.2 mph 0.00 in   Mostly Cloudy
4:53 PM 73.9 °F 64.9 °F 73% 30.10 in 10.0 mi NNE 16.1 mph 23.0 mph N/A   Mostly Cloudy
5:53 PM 71.1 °F 64.9 °F 81% 30.12 in 6.0 mi ENE 20.7 mph 26.5 mph 0.00 in Rain Light Rain
6:53 PM 71.1 °F 64.9 °F 81% 30.11 in 10.0 mi NNE 11.5 mph - 0.00 in Rain Light Rain
7:53 PM 72.0 °F 64.9 °F 78% 30.14 in 9.0 mi ENE 13.8 mph 20.7 mph 0.00 in Rain Light Rain
8:53 PM 71.1 °F 66.9 °F 87% 30.14 in 10.0 mi ENE 13.8 mph - 0.02 in Rain Light Rain
9:53 PM 70.0 °F 66.0 °F 87% 30.15 in 7.0 mi NE 13.8 mph - 0.05 in Rain Light Rain
10:53 PM 71.1 °F 69.1 °F 93% 30.14 in 10.0 mi NE 10.4 mph 18.4 mph 0.05 in Rain Light Rain
11:53 PM 72.0 °F 65.8 °F 81% 30.15 in 10.0 mi NE 11.5 mph - 0.04 in   Overcast